When you browse on this site, cookies collect data to enhance your experience and personalize the content and advertising you see.
Visit our Privacy Policy to learn more. By continuing to use the site, you agree to this use of cookies and data.
  • In Spain
  • List of Countries
  • For 7 days
  • Water Temperature
  • Weather Map
  • Weather Widgets
  • user-avatar
    Login

    Hourly Weather Florence

    Today, 21 August, Wednesday

    Time Temperature Precipitation Wind Pressure Humidity
    00:00 +23°C° 0 mm 0 mps 757 mmHg 55%
    01:00 +23°C° 0 mm 0 mps 757 mmHg 56%
    02:00 +22°C° 0 mm 0 mps 757 mmHg 55%
    03:00 +22°C° 0 mm 0 mps 757 mmHg 55%
    04:00 +22°C° 0 mm 0 mps 757 mmHg 54%
    05:00 +23°C° 0 mm 0 mps 757 mmHg 54%
    06:00 +23°C° 0 mm 0 mps 758 mmHg 53%
    07:00 +24°C° 0 mm 0 mps 758 mmHg 52%
    08:00 +27°C° 0 mm 0 mps 758 mmHg 45%
    09:00 +30°C° 0 mm 0 mps 758 mmHg 38%
    10:00 +34°C° 0 mm 1 mps 758 mmHg 31%
    11:00 +35°C° 0 mm 1 mps 758 mmHg 29%
    12:00 +37°C° 0 mm 1 mps 758 mmHg 27%
    13:00 +39°C° 0 mm 1 mps 758 mmHg 25%
    14:00 +38°C° 0 mm 2 mps 758 mmHg 27%
    15:00 +37°C° 0 mm 2 mps 757 mmHg 30%
    16:00 +37°C° 0 mm 3 mps 757 mmHg 32%
    17:00 +35°C° 0 mm 3 mps 757 mmHg 40%
    18:00 +32°C° 0 mm 2 mps 758 mmHg 48%
    19:00 +30°C° 0 mm 1 mps 758 mmHg 56%
    20:00 +28°C° 0.1 mm 1 mps 758 mmHg 61%
    21:00 +27°C° 0.1 mm 1 mps 758 mmHg 66%
    22:00 +26°C° 0.1 mm 1 mps 758 mmHg 71%
    23:00 +25°C° 0.1 mm 1 mps 759 mmHg 73%

    Tomorrow, 22 August, Thursday

    Time Temperature Precipitation Wind Pressure Humidity
    00:00 +25°C° 0.1 mm 1 mps 759 mmHg 74%
    01:00 +24°C° 0.1 mm 1 mps 759 mmHg 76%
    02:00 +24°C° 0.1 mm 1 mps 759 mmHg 78%
    03:00 +24°C° 0.1 mm 1 mps 758 mmHg 80%
    04:00 +24°C° 0.1 mm 1 mps 758 mmHg 82%
    05:00 +24°C° 0 mm 1 mps 759 mmHg 81%
    06:00 +25°C° 0 mm 1 mps 759 mmHg 80%
    07:00 +25°C° 0 mm 2 mps 759 mmHg 80%
    08:00 +27°C° 0 mm 2 mps 759 mmHg 71%
    09:00 +29°C° 0 mm 2 mps 759 mmHg 63%
    10:00 +31°C° 0 mm 2 mps 759 mmHg 54%
    11:00 +32°C° 0 mm 2 mps 759 mmHg 49%
    12:00 +35°C° 0 mm 2 mps 759 mmHg 44%
    13:00 +37°C° 0 mm 2 mps 759 mmHg 38%
    14:00 +36°C° 0.2 mm 2 mps 758 mmHg 40%
    15:00 +35°C° 0.2 mm 2 mps 758 mmHg 42%
    16:00 +35°C° 0.2 mm 3 mps 758 mmHg 44%
    17:00 +31°C° 1 mm 3 mps 758 mmHg 53%
    18:00 +29°C° 1 mm 3 mps 758 mmHg 62%
    19:00 +27°C° 1 mm 3 mps 758 mmHg 72%
    20:00 +26°C° 0.3 mm 3 mps 758 mmHg 73%
    21:00 +25°C° 0.3 mm 2 mps 759 mmHg 74%
    22:00 +24°C° 0.3 mm 1 mps 759 mmHg 76%
    23:00 +24°C° 0 mm 1 mps 759 mmHg 75%

    Day after tomorrow, 23 August, Friday

    Time Temperature Precipitation Wind Pressure Humidity
    00:00 +24°C° 0 mm 1 mps 759 mmHg 75%
    01:00 +23°C° 0 mm 1 mps 759 mmHg 75%
    02:00 +23°C° 0.1 mm 1 mps 759 mmHg 76%
    03:00 +23°C° 0.1 mm 1 mps 759 mmHg 78%
    04:00 +23°C° 0.1 mm 1 mps 758 mmHg 79%
    05:00 +23°C° 0.3 mm 1 mps 759 mmHg 79%
    06:00 +24°C° 0.3 mm 1 mps 759 mmHg 79%
    07:00 +24°C° 0.3 mm 1 mps 759 mmHg 79%
    08:00 +26°C° 0.1 mm 1 mps 759 mmHg 71%
    09:00 +28°C° 0.1 mm 2 mps 759 mmHg 64%
    10:00 +30°C° 0.1 mm 2 mps 759 mmHg 56%
    11:00 +31°C° 0.2 mm 2 mps 759 mmHg 51%
    12:00 +32°C° 0.2 mm 2 mps 759 mmHg 46%
    13:00 +34°C° 0.2 mm 2 mps 759 mmHg 42%
    14:00 +34°C° 0.4 mm 2 mps 759 mmHg 41%
    15:00 +34°C° 0.4 mm 2 mps 758 mmHg 40%
    16:00 +34°C° 0.4 mm 2 mps 758 mmHg 39%
    17:00 +30°C° 2.4 mm 2 mps 758 mmHg 54%
    18:00 +27°C° 2.4 mm 2 mps 758 mmHg 69%
    19:00 +23°C° 2.4 mm 2 mps 758 mmHg 84%
    20:00 +23°C° 0.1 mm 1 mps 758 mmHg 83%
    21:00 +23°C° 0.1 mm 1 mps 758 mmHg 82%
    22:00 +23°C° 0.1 mm 1 mps 759 mmHg 81%
    23:00 +23°C° 0 mm 1 mps 758 mmHg 81%

    24 August, Saturday

    Time Temperature Precipitation Wind Pressure Humidity
    00:00 +23°C° 0 mm 1 mps 758 mmHg 80%
    01:00 +22°C° 0 mm 1 mps 758 mmHg 80%
    02:00 +22°C° 0 mm 1 mps 758 mmHg 79%
    03:00 +22°C° 0 mm 1 mps 758 mmHg 79%
    04:00 +22°C° 0 mm 1 mps 758 mmHg 79%
    05:00 +23°C° 0 mm 1 mps 758 mmHg 77%
    06:00 +23°C° 0 mm 1 mps 758 mmHg 74%
    07:00 +24°C° 0 mm 1 mps 758 mmHg 72%
    08:00 +27°C° 0 mm 1 mps 758 mmHg 63%
    09:00 +27°C° 0 mm 0 mps 758 mmHg 53%
    10:00 +30°C° 0 mm 0 mps 759 mmHg 44%
    11:00 +33°C° 0 mm 1 mps 758 mmHg 40%
    12:00 +34°C° 0 mm 1 mps 758 mmHg 37%
    13:00 +35°C° 0 mm 1 mps 758 mmHg 33%
    14:00 +35°C° 0.3 mm 1 mps 757 mmHg 36%
    15:00 +35°C° 0.3 mm 2 mps 757 mmHg 38%
    16:00 +34°C° 0.3 mm 2 mps 757 mmHg 40%
    17:00 +31°C° 0.3 mm 2 mps 757 mmHg 48%
    18:00 +29°C° 0.3 mm 1 mps 757 mmHg 55%
    19:00 +26°C° 0.3 mm 1 mps 757 mmHg 63%
    20:00 +26°C° 0.1 mm 1 mps 757 mmHg 66%
    21:00 +25°C° 0.1 mm 1 mps 757 mmHg 69%
    22:00 +22°C° 0.1 mm 0 mps 757 mmHg 72%
    23:00 +22°C° 0 mm 0 mps 757 mmHg 72%

    25 August, Sunday

    Time Temperature Precipitation Wind Pressure Humidity
    00:00 +22°C° 0 mm 0 mps 757 mmHg 72%
    01:00 +22°C° 0 mm 0 mps 757 mmHg 73%
    02:00 +21°C° 0 mm 0 mps 757 mmHg 74%
    03:00 +21°C° 0 mm 0 mps 757 mmHg 75%
    04:00 +21°C° 0 mm 0 mps 757 mmHg 75%
    05:00 +22°C° 0 mm 0 mps 757 mmHg 73%
    06:00 +22°C° 0 mm 0 mps 757 mmHg 72%
    07:00 +25°C° 0 mm 1 mps 757 mmHg 70%
    08:00 +26°C° 0 mm 0 mps 757 mmHg 60%
    09:00 +28°C° 0 mm 0 mps 758 mmHg 51%
    10:00 +31°C° 0 mm 0 mps 758 mmHg 42%
    11:00 +34°C° 0 mm 1 mps 757 mmHg 38%
    12:00 +35°C° 0 mm 1 mps 757 mmHg 35%
    13:00 +36°C° 0 mm 1 mps 757 mmHg 31%
    14:00 +37°C° 0 mm 2 mps 757 mmHg 33%
    15:00 +36°C° 0 mm 2 mps 756 mmHg 35%
    16:00 +35°C° 0 mm 2 mps 756 mmHg 37%
    17:00 +32°C° 0.1 mm 2 mps 756 mmHg 44%
    18:00 +30°C° 0.1 mm 1 mps 756 mmHg 52%
    19:00 +28°C° 0.1 mm 1 mps 756 mmHg 59%
    20:00 +27°C° 0 mm 1 mps 756 mmHg 62%
    21:00 +27°C° 0 mm 1 mps 757 mmHg 65%
    22:00 +26°C° 0 mm 1 mps 757 mmHg 68%
    23:00 +25°C° 0 mm 1 mps 757 mmHg 69%

    26 August, Monday

    Time Temperature Precipitation Wind Pressure Humidity
    00:00 +23°C° 0 mm 0 mps 757 mmHg 70%
    01:00 +23°C° 0 mm 0 mps 757 mmHg 71%
    02:00 +23°C° 0 mm 0 mps 757 mmHg 72%
    03:00 +22°C° 0 mm 0 mps 757 mmHg 73%
    04:00 +24°C° 0 mm 1 mps 757 mmHg 74%
    05:00 +23°C° 0 mm 0 mps 757 mmHg 72%
    06:00 +23°C° 0 mm 0 mps 757 mmHg 71%
    07:00 +24°C° 0 mm 0 mps 757 mmHg 69%
    08:00 +29°C° 0 mm 1 mps 758 mmHg 60%
    09:00 +31°C° 0 mm 1 mps 758 mmHg 50%
    10:00 +33°C° 0 mm 1 mps 758 mmHg 41%
    11:00 +35°C° 0 mm 1 mps 758 mmHg 37%
    12:00 +37°C° 0 mm 2 mps 758 mmHg 34%
    13:00 +38°C° 0 mm 2 mps 758 mmHg 30%
    14:00 +38°C° 0 mm 2 mps 757 mmHg 30%
    15:00 +37°C° 0 mm 2 mps 757 mmHg 31%
    16:00 +37°C° 0 mm 2 mps 757 mmHg 31%
    17:00 +35°C° 0 mm 2 mps 757 mmHg 39%
    18:00 +32°C° 0 mm 2 mps 757 mmHg 46%
    19:00 +30°C° 0 mm 1 mps 757 mmHg 53%
    20:00 +29°C° 0 mm 1 mps 757 mmHg 57%
    21:00 +28°C° 0 mm 1 mps 757 mmHg 60%
    22:00 +27°C° 0 mm 1 mps 758 mmHg 63%
    23:00 +26°C° 0 mm 1 mps 758 mmHg 64%
    Show more